Home   Weather   Speyer   Past weeks

Flag for Germany Past Weather in Speyer, Rhineland-Palatinate, Germany — Yesterday and Last 2 Weeks

Now
50 °F

Low clouds.


Feels Like: 46 °F
Forecast: 49 / 51 °F
Wind: 9 mph from Southwest

Location: Ramstein

Current Time: Feb 22, 2017 at 12:51:06 am

Latest Report: Feb 22, 2017 at 12:19 am


Visibility: N/A

Pressure: 30.01 "Hg

Humidity: 100%

Dew Point: 50 °F

Location of SpeyerLocation

Past Weather in Speyer — Graph

°F

Speyer Temperature Yesterday

Maximum temperature yesterday: 54 °F (at 1:42 pm)
Minimum temperature yesterday: 46 °F (at 12:38 am)
Average temperature yesterday: 50 °F

High & Low Weather Summary for the Past Weeks

 TemperatureHumidityPressure
High59 °F (Feb 16, 2:58 pm)100% (Feb 7, 2:58 am)30.62 "Hg (Feb 7, 2:58 am)
Low19 °F (Feb 19, 7:42 am)58% (Feb 15, 2:58 pm)29.98 "Hg (Feb 7, 3:08 pm)
Average38 °F93%30.23 "Hg
* Reported Feb 6 11:58 pm — Feb 21 11:29 pm, Speyer, Weather by CustomWeather, © 2017

Note: Actual official high and low records may vary slightly from our data, if they occured in-between our weather recording intervals... More about our weather records

Advertising

Speyer Weather History for the Previous 24 Hours

Scroll right to see more
 ConditionsComfort  
Time TempWeatherWind HumidityBarometerVisibility
11:29 pm
Tue, Feb 21
50 °FLight rain. Low clouds.13 mph100%30.02 "HgN/A
10:58 pm50 °FOvercast.8 mph99%30.04 "HgN/A
10:13 pm50 °FOvercast.8 mph100%30.02 "HgN/A
9:58 pm50 °FOvercast.9 mph100%30.05 "HgN/A
8:59 pm48 °FOvercast.12 mph100%30.04 "HgN/A
8:58 pm49 °FLow clouds.10 mph99%30.06 "HgN/A
8:32 pm48 °FMostly cloudy.9 mph100%30.04 "HgN/A
8:01 pm48 °FOvercast.10 mph100%30.04 "HgN/A
7:49 pm48 °FMostly cloudy.9 mph100%30.05 "HgN/A
7:41 pm48 °FMostly cloudy.9 mph100%30.05 "HgN/A
7:32 pm48 °FMostly cloudy.6 mph100%30.05 "HgN/A
7:18 pm48 °FMostly cloudy.9 mph100%30.06 "HgN/A
6:58 pm49 °FMostly cloudy.12 mph99%30.08 "HgN/A
6:46 pm50 °FOvercast.9 mph94%30.05 "HgN/A
6:34 pm50 °FOvercast.9 mph94%30.05 "HgN/A
6:06 pm50 °FMostly cloudy.8 mph100%30.05 "HgN/A
5:58 pm50 °FMostly cloudy.9 mph97%30.07 "HgN/A
5:38 pm50 °FMostly cloudy.13 mph100%30.04 "HgN/A
5:07 pm50 °FCloudy.8 mph100%30.03 "HgN/A
4:29 pm52 °FMostly cloudy.13 mph94%30.03 "HgN/A
4:25 pm52 °FMostly cloudy.14 mph100%30.03 "HgN/A
3:58 pm52 °FBroken clouds.10 mph98%30.04 "HgN/A
3:15 pm52 °FMostly cloudy.9 mph100%30.03 "HgN/A
2:58 pm52 °FOvercast.12 mph100%30.04 "HgN/A
2:32 pm52 °FMostly cloudy.7 mph94%30.03 "HgN/A
1:58 pm53 °FBroken clouds.8 mph99%30.05 "HgN/A
1:42 pm54 °FBroken clouds.13 mph94%30.03 "HgN/A
1:04 pm52 °FPartly sunny.12 mph100%30.03 "HgN/A
12:41 pm52 °FCloudy.8 mph100%30.04 "HgN/A
12:18 pm52 °FMostly cloudy.6 mph100%30.04 "HgN/A
12:05 pm52 °FMore clouds than sun.10 mph100%30.05 "HgN/A
11:58 am52 °FMostly cloudy.7 mph100%30.07 "HgN/A
11:37 am50 °FMostly cloudy.9 mph100%30.04 "HgN/A
10:58 am50 °FMore clouds than sun.10 mph100%30.05 "HgN/A
10:12 am50 °FMostly cloudy.8 mph100%30.02 "HgN/A
9:58 am50 °FMostly cloudy.7 mph100%30.04 "HgN/A
9:37 am50 °FMore clouds than sun.8 mph100%30.01 "HgN/A
9:16 am50 °FMore clouds than sun.10 mph100%30.02 "HgN/A
8:58 am50 °FMostly cloudy.12 mph100%30.03 "HgN/A
8:38 am50 °FMore clouds than sun.10 mph100%30.01 "HgN/A
8:22 am50 °FMore clouds than sun.13 mph100%30.00 "HgN/A
8:07 am50 °FLight rain. Fog.9 mph100%30.00 "Hg5 mi
7:44 am50 °FFog.10 mph100%30.01 "Hg4 mi
7:30 am50 °FFog.8 mph100%30.00 "Hg6 mi
6:58 am49 °FFog.9 mph100%30.01 "Hg5 mi
6:43 am48 °FFog.8 mph100%29.99 "Hg6 mi
6:28 am48 °FLight rain. Low clouds.5 mph100%29.99 "HgN/A
6:14 am48 °FLow clouds.7 mph100%29.99 "HgN/A
5:58 am48 °FLight rain. Fog.3 mph100%30.01 "Hg6 mi
5:42 am48 °FLight rain. Low clouds.7 mph100%29.99 "HgN/A
5:16 am48 °FLight rain. Fog.9 mph100%30.00 "Hg5 mi
4:59 am48 °FDrizzle. Low clouds.8 mph100%30.00 "HgN/A
4:58 am49 °FLow clouds.9 mph99%30.02 "HgN/A
4:01 am48 °FLow clouds.8 mph100%30.01 "HgN/A
3:58 am48 °FLow clouds.8 mph100%30.03 "HgN/A
2:58 am48 °FLow clouds.7 mph100%30.05 "HgN/A
1:58 am47 °FLow clouds.8 mph99%30.07 "HgN/A
12:58 am47 °FLow clouds.6 mph100%30.09 "HgN/A
12:38 am46 °FLow clouds.12 mph100%30.06 "HgN/A
Weather by CustomWeather, © 2017

See weather overviewHow to use our weather pages